[[{"header":{"parameterUnit":"m.s-1","parameterCategory":1,"la1":30.2991,"la2":30.254,"lo1":-89.0895,"lo2":-89.0444,"dy":0.0017,"dx":0.0017,"nx":28,"ny":28,"refTime":"2023-08-25T21:00:00:Z","depth":0,"parameterNumber":2,"parameterNumberName":"U-component_of_WINDS"},"data":[0,0,0,0,0,0,0,0,0,0,0,0,0,0,0,0,0,0,0,0,0,0,0,0,0,0,0,0,0,0,0,0,0,0,0,0,0,0,0,0,0,0,0,0,0,0,0,0,0,0,0,0,0,0,0,0,0,0,2.86,2.86,0,2.861,2.861,2.861,2.8566,2.8565,2.8563,2.8562,2.8572,2.8574,2.8575,0,0,0,0,0,0,0,0,0,0,0,0,0,2.8545,2.8546,2.86,2.86,2.86,2.861,2.861,2.861,2.8566,2.8565,2.8563,2.8561,2.8572,2.8574,2.8575,0,0,0,0,0,0,0,0,0,0,0,0,0,2.8563,2.8547,2.86,2.8579,2.8578,2.861,2.861,2.861,2.8566,2.8564,2.8563,2.8561,2.8571,2.8573,2.8576,2.8628,0,0,2.8582,2.8583,0,0,0,0,0,0,0,0,2.8562,2.8565,2.8582,2.8581,2.8579,2.8585,2.8594,2.8616,2.8567,2.8571,2.8562,2.856,2.8578,2.8579,2.8586,2.8628,2.8629,2.8582,2.8584,2.8585,2.8585,0,0,0,0,0,0,0,2.8561,2.8565,2.8604,2.8583,2.8581,2.857,2.8571,2.8598,2.8585,2.857,2.8567,2.8569,2.8577,2.8584,2.8585,2.8629,2.8582,2.8584,2.8586,2.8587,2.8718,2.872,0,0,0,0,0,0,2.8563,2.8564,2.8603,2.8604,2.8566,2.8573,2.8573,2.8585,2.8585,2.8583,2.857,2.8567,2.8581,2.8583,2.8586,2.8649,2.8585,2.8587,2.8588,2.8716,2.8719,2.8721,0,0,0,0,0,0,2.8562,2.8566,2.8603,2.8583,2.8587,2.8576,2.8589,2.8586,2.8593,2.8585,2.8582,2.858,2.8579,2.8583,2.8618,2.8648,2.8588,2.859,2.8713,2.8717,2.872,2.8774,0,0,0,0,0,0,2.856,2.8566,2.8585,2.8584,2.8588,2.8635,2.8591,2.8588,2.8597,2.8592,2.8593,2.8591,2.8578,2.8615,2.8621,2.865,2.8592,2.8711,2.8715,2.8719,2.877,2.8779,2.8787,0,0,0,0,0,2.8558,2.86,2.8587,2.8592,2.8612,2.8637,2.8639,2.8623,2.8599,2.8619,2.8614,2.8591,2.8644,2.8619,2.8625,2.8656,2.8709,2.8714,2.8718,2.8766,2.8777,2.8787,0,0,0,0,0,0,2.8604,2.8599,2.8584,2.8626,2.8633,2.8629,2.8653,2.8635,2.8648,2.8643,2.8623,2.8624,2.8664,2.8663,2.8635,2.8708,2.8672,2.8679,2.8707,2.8717,2.8726,2.8725,2.8593,0,0,0,0,0,2.8619,2.864,2.8634,2.8672,2.8676,2.8664,2.8674,2.8662,2.8667,2.867,2.8667,2.8674,2.8692,2.8705,2.8721,2.877,2.877,2.8794,2.8803,2.881,2.8816,2.8844,2.8855,2.8737,2.8737,2.8737,0,0,2.865,2.865,2.8664,2.8681,2.8684,2.8707,2.8667,2.8691,2.8708,2.8673,2.8707,2.8707,2.8712,2.8756,2.8775,2.8757,2.8848,2.8816,2.8822,2.8824,2.885,2.8861,2.8871,2.874,2.874,2.8739,0,0,2.8719,2.872,2.8753,2.8758,2.8763,2.8756,2.8764,2.8764,2.8763,2.8797,2.8772,2.8792,2.8823,2.8829,2.8837,2.8911,2.8891,2.8917,2.8962,2.899,2.8999,2.9008,2.9036,2.9046,2.8923,2.8923,2.8923,0,2.8757,2.8789,2.8772,2.88,2.8809,2.8779,2.8813,2.8818,2.8829,2.8837,2.8817,2.8857,2.8859,2.8905,2.8923,2.8929,2.8939,2.8917,2.8999,2.9007,2.9015,2.9042,2.9052,2.8926,2.8926,2.8925,2.8925,0,2.8837,2.886,2.8886,2.8899,2.8911,2.8941,2.893,2.8944,2.8931,2.8927,2.8963,2.8965,2.8982,2.8992,2.8979,2.9036,2.9025,2.9003,2.8967,2.903,2.9055,2.9065,2.8931,2.893,2.8929,2.8928,0,0,2.8933,2.8938,2.8948,2.8954,2.896,2.8978,2.9008,2.9026,2.9039,2.9048,2.9075,2.9103,2.9083,2.9092,2.9079,2.9104,2.9166,2.9078,2.9078,2.9096,2.9232,2.925,2.9262,2.9152,2.9154,2.9156,2.9232,0,2.9002,2.9054,2.904,2.9092,2.9115,2.9088,2.9115,2.9122,2.9119,2.9139,2.9135,2.9157,2.9127,2.9133,2.9156,2.9153,2.9193,2.9147,2.9178,2.9179,2.9178,2.9275,2.9293,2.9365,2.9241,2.9243,2.9244,0,2.9088,2.9103,2.9157,2.9162,2.9171,2.9195,2.9211,2.923,2.9238,2.9234,2.9246,2.9229,2.9261,2.9225,2.9269,2.9238,2.925,2.9251,2.9253,2.9256,2.9216,2.9282,2.9387,2.9399,2.9259,2.9258,2.9257,0,2.9156,2.9188,2.9226,2.9232,2.9237,2.9256,2.9259,2.9265,2.9278,2.9292,2.9301,2.9318,2.9329,2.9343,2.9333,2.9307,2.938,2.9342,2.9379,2.9379,2.9396,2.9395,2.9506,2.9401,2.9401,2.9401,2.9401,0,2.9234,2.9269,2.9256,2.9279,2.9319,2.9304,2.9343,2.9343,2.935,2.9373,2.9351,2.9374,2.9359,2.9381,2.9373,2.9412,2.9416,2.9415,2.9413,2.9418,2.9418,2.9426,2.9421,2.9404,2.9403,2.9403,2.9402,0,2.9316,2.9308,2.9348,2.9351,2.9353,2.9382,2.9385,2.9407,2.9403,2.9434,2.944,2.9434,2.9459,2.9451,2.9477,2.9472,2.9522,2.9513,2.952,2.9518,2.9556,2.9553,2.9676,2.9693,2.9577,2.9578,2.9579,0,2.9367,2.9394,2.94,2.9415,2.942,2.9444,2.9457,2.9444,2.9458,2.9472,2.9493,2.9516,2.9534,2.9576,2.9574,2.9595,2.9587,2.9629,2.959,2.9595,2.959,2.9589,2.9592,2.9637,2.9638,2.9639,2.964,0,2.9459,2.9455,2.9475,2.9495,2.9511,2.9525,2.9538,2.9551,2.9539,2.9557,2.9583,2.9597,2.9625,2.965,2.9669,2.9673,2.9656,2.9653,2.9663,2.9668,2.9672,2.9672,2.9542,2.965,2.9649,2.9648,2.9648,2.9647,2.9528,2.9552,2.9561,2.9585,2.9593,2.9606,2.9628,2.9628,2.9649,2.9671,2.9663,2.9693,2.9703,2.9727,2.9735,2.9759,2.9743,2.9757,2.976,2.9764,2.977,2.9668,2.9762,2.9762,2.9762,2.9761,2.9761,0,2.9621,2.9627,2.9648,2.9668,2.9687,2.9669,2.9683,2.97,2.9727,2.9738,2.9757,2.9788,2.9812,2.9814,2.9836,2.9856,2.9849,2.9862,2.9861,2.9863,2.9782,2.9772,2.9868,2.9868,2.9868,2.9868,2.9868,2.9868,2.9672,2.9712,2.9709,2.9753,2.9758,2.9788,2.9798,2.981,2.9819,2.9855,2.9876,2.9876,2.9884,2.9908,2.993,2.993,2.994,2.9957,2.9954,2.9879,2.9868,2.9858,2.9849,2.9959,2.9959,3.0033,3.0034,3.0035]},{"header":{"parameterUnit":"m.s-1","parameterCategory":1,"la1":30.2991,"la2":30.254,"lo1":-89.0895,"lo2":-89.0444,"dy":0.0017,"dx":0.0017,"nx":28,"ny":28,"refTime":"2023-08-25T21:00:00:Z","depth":0,"parameterNumber":3,"parameterNumberName":"V-component_of_WINDS"},"data":[0,0,0,0,0,0,0,0,0,0,0,0,0,0,0,0,0,0,0,0,0,0,0,0,0,0,0,0,0,0,0,0,0,0,0,0,0,0,0,0,0,0,0,0,0,0,0,0,0,0,0,0,0,0,0,0,0,0,-3.3855,-3.3855,0,-3.3929,-3.393,-3.3931,-3.3943,-3.3943,-3.3942,-3.3941,-3.4015,-3.4017,-3.402,0,0,0,0,0,0,0,0,0,0,0,0,0,-3.3723,-3.3725,-3.3855,-3.3856,-3.3857,-3.3929,-3.393,-3.3931,-3.3943,-3.3943,-3.3942,-3.3941,-3.4014,-3.4017,-3.402,0,0,0,0,0,0,0,0,0,0,0,0,0,-3.3787,-3.3726,-3.3854,-3.3872,-3.3874,-3.3929,-3.393,-3.3931,-3.3944,-3.3943,-3.3942,-3.3941,-3.4013,-3.4017,-3.402,-3.4062,0,0,-3.4032,-3.4034,0,0,0,0,0,0,0,0,-3.3783,-3.3792,-3.3868,-3.387,-3.3873,-3.3926,-3.391,-3.3975,-3.3944,-3.3917,-3.3941,-3.394,-3.3986,-3.3992,-3.4008,-3.4066,-3.4069,-3.4032,-3.4035,-3.4036,-3.4037,0,0,0,0,0,0,0,-3.3779,-3.3789,-3.3884,-3.3869,-3.3872,-3.3875,-3.3883,-3.3923,-3.3956,-3.3919,-3.392,-3.3929,-3.3987,-3.4004,-3.4009,-3.407,-3.4032,-3.4036,-3.4038,-3.4039,-3.417,-3.4171,0,0,0,0,0,0,-3.3772,-3.3785,-3.3882,-3.3886,-3.3825,-3.3878,-3.3887,-3.391,-3.3955,-3.3961,-3.393,-3.3929,-3.3998,-3.4005,-3.4012,-3.4067,-3.4036,-3.404,-3.4042,-3.4169,-3.417,-3.4172,0,0,0,0,0,0,-3.3769,-3.378,-3.3879,-3.3836,-3.3849,-3.3882,-3.3907,-3.3912,-3.3929,-3.3963,-3.3969,-3.3941,-3.3997,-3.4007,-3.4051,-3.4069,-3.4041,-3.4045,-3.4167,-3.4169,-3.4171,-3.4175,0,0,0,0,0,0,-3.3765,-3.3779,-3.3795,-3.3836,-3.3851,-3.3916,-3.3908,-3.3914,-3.3936,-3.3936,-3.3976,-3.3981,-3.3997,-3.4045,-3.4055,-3.4074,-3.4048,-3.4166,-3.4168,-3.417,-3.4173,-3.4177,-3.4179,0,0,0,0,0,-3.376,-3.3792,-3.3796,-3.3808,-3.3872,-3.3917,-3.3926,-3.3944,-3.3937,-3.3954,-3.3977,-3.398,-3.4066,-3.4049,-3.406,-3.4081,-3.4165,-3.4168,-3.417,-3.4172,-3.4176,-3.4179,0,0,0,0,0,0,-3.3751,-3.3798,-3.3802,-3.3849,-3.3879,-3.3919,-3.3941,-3.3948,-3.398,-3.3979,-3.4,-3.4009,-3.4052,-3.4071,-3.4052,-3.4126,-3.4115,-3.412,-3.4112,-3.4116,-3.4119,-3.4114,-3.4051,0,0,0,0,0,-3.3754,-3.3787,-3.3826,-3.3863,-3.3879,-3.3907,-3.3928,-3.394,-3.3972,-3.3984,-3.401,-3.404,-3.4075,-3.4096,-3.4129,-3.4176,-3.4186,-3.4196,-3.4199,-3.4201,-3.4205,-3.4234,-3.424,-3.418,-3.418,-3.418,0,0,-3.3761,-3.3791,-3.381,-3.3862,-3.3887,-3.3922,-3.3918,-3.3953,-3.3979,-3.3989,-3.4034,-3.4054,-3.4089,-3.4135,-3.4157,-3.4152,-3.4224,-3.4205,-3.4206,-3.4209,-3.4238,-3.4243,-3.4248,-3.4182,-3.4182,-3.4182,0,0,-3.3792,-3.3817,-3.3853,-3.3878,-3.3917,-3.3937,-3.3945,-3.3985,-3.3999,-3.4044,-3.4054,-3.4084,-3.4142,-3.4168,-3.4188,-3.4232,-3.4237,-3.4242,-3.4259,-3.4286,-3.4291,-3.4295,-3.4313,-3.4319,-3.4246,-3.4246,-3.4246,0,-3.3796,-3.3848,-3.3869,-3.3906,-3.3929,-3.3942,-3.3978,-3.4002,-3.4049,-3.4065,-3.4059,-3.4134,-3.4158,-3.4212,-3.4224,-3.4239,-3.425,-3.4238,-3.4289,-3.4293,-3.4298,-3.4315,-3.4321,-3.4247,-3.4247,-3.4247,-3.4247,0,-3.3852,-3.3889,-3.3912,-3.396,-3.3986,-3.4021,-3.4048,-3.4072,-3.4083,-3.4103,-3.415,-3.418,-3.4221,-3.4234,-3.4244,-3.429,-3.4287,-3.4285,-3.4274,-3.4304,-3.432,-3.4327,-3.4247,-3.4247,-3.4247,-3.4247,0,0,-3.3878,-3.3939,-3.3947,-3.397,-3.4015,-3.4044,-3.4081,-3.4122,-3.4143,-3.4176,-3.4208,-3.4258,-3.4258,-3.4281,-3.4294,-3.4318,-3.4354,-3.4314,-3.4315,-3.4322,-3.441,-3.4413,-3.442,-3.4358,-3.4359,-3.436,-3.4408,0,-3.3915,-3.3983,-3.4005,-3.4062,-3.4097,-3.4111,-3.4143,-3.4175,-3.4195,-3.4228,-3.425,-3.4286,-3.4281,-3.4296,-3.4321,-3.4345,-3.4373,-3.4341,-3.4389,-3.4391,-3.4381,-3.4428,-3.443,-3.4473,-3.4414,-3.4415,-3.4416,0,-3.3968,-3.4004,-3.4065,-3.4108,-3.4124,-3.4153,-3.4194,-3.4225,-3.4262,-3.4275,-3.4303,-3.4315,-3.4355,-3.4342,-3.4398,-3.4377,-3.4398,-3.4413,-3.4415,-3.4421,-3.4406,-3.4437,-3.4487,-3.4494,-3.4426,-3.4425,-3.4425,0,-3.3983,-3.4046,-3.4092,-3.4111,-3.4162,-3.4183,-3.4205,-3.4241,-3.4265,-3.4301,-3.4317,-3.4357,-3.4379,-3.4409,-3.4432,-3.442,-3.4487,-3.4475,-3.45,-3.45,-3.4514,-3.4513,-3.457,-3.4525,-3.4525,-3.4525,-3.4525,0,-3.4023,-3.4061,-3.41,-3.4128,-3.4171,-3.4195,-3.4237,-3.4259,-3.4292,-3.4325,-3.4338,-3.4369,-3.4396,-3.4431,-3.4449,-3.4494,-3.4503,-3.4516,-3.452,-3.4516,-3.4514,-3.453,-3.4528,-3.4527,-3.4526,-3.4526,-3.4526,0,-3.4047,-3.4075,-3.4126,-3.4172,-3.4184,-3.4214,-3.4252,-3.4281,-3.4302,-3.4344,-3.4356,-3.439,-3.4431,-3.4457,-3.4509,-3.4521,-3.4572,-3.4574,-3.456,-3.4563,-3.4587,-3.4585,-3.4657,-3.4669,-3.4615,-3.4615,-3.4615,0,-3.4072,-3.4102,-3.4151,-3.4175,-3.4198,-3.4236,-3.4262,-3.4287,-3.4314,-3.436,-3.4383,-3.4426,-3.4462,-3.4528,-3.4557,-3.4598,-3.4602,-3.4625,-3.4608,-3.4604,-3.4605,-3.4604,-3.4608,-3.4628,-3.4628,-3.4629,-3.4629,0,-3.4113,-3.4127,-3.4164,-3.4207,-3.4238,-3.4273,-3.4308,-3.4326,-3.4358,-3.4387,-3.4431,-3.4459,-3.4514,-3.4557,-3.4601,-3.4624,-3.4633,-3.4634,-3.4643,-3.4638,-3.463,-3.4637,-3.457,-3.4632,-3.4632,-3.4632,-3.4632,-3.4632,-3.414,-3.4168,-3.4208,-3.425,-3.4279,-3.4312,-3.4342,-3.4369,-3.4406,-3.4454,-3.4466,-3.4513,-3.4551,-3.4611,-3.4635,-3.4672,-3.4669,-3.468,-3.4683,-3.4686,-3.4688,-3.4623,-3.468,-3.468,-3.468,-3.468,-3.468,0,-3.4184,-3.4211,-3.4249,-3.4299,-3.4332,-3.4339,-3.4378,-3.4406,-3.4447,-3.4482,-3.4518,-3.457,-3.4613,-3.4646,-3.469,-3.4714,-3.4719,-3.4725,-3.4724,-3.4729,-3.4687,-3.4677,-3.472,-3.472,-3.472,-3.472,-3.472,-3.472,-3.421,-3.4259,-3.4277,-3.4341,-3.4368,-3.4415,-3.4437,-3.4468,-3.4497,-3.4555,-3.4591,-3.4613,-3.4648,-3.4696,-3.4736,-3.4744,-3.4761,-3.4766,-3.4776,-3.4736,-3.4732,-3.4728,-3.4718,-3.4769,-3.4769,-3.4815,-3.4815,-3.4816]}]]